Fort Sill, OK

10:22 PM CDT on July 23, 2017 (GMT -0500)
Post Army Air Field

Weather History for KFSI - October, 2013

Change the Weather History Date:

Sunday, October 13, 2013

  Actual Average Record
Temperature  
Mean Temperature 67 °F -  
Max Temperature 72 °F 79 °F 96 °F (1954)
Min Temperature 62 °F 52 °F 36 °F (1977)
Cooling Degree Days 2    
Growing Degree Days 17 (Base 50)    
Moisture  
Dew Point 60 °F    
Average Humidity 78    
Maximum Humidity 95    
Minimum Humidity 65    
Precipitation  
Precipitation 0.00 in - - ()
Sea Level Pressure  
Sea Level Pressure 30.18 in    
Wind  
Wind Speed 8 mph (ENE)    
Max Wind Speed 13 mph    
Max Gust Speed -    
Visibility 6 miles    
Events Rain    
Averages and records for this station are not official NWS values.
T = Trace of Precipitation, MM = Missing Value Source: NWS Daily Summary

Daily Weather History Graph

Daily Weather History Graph

Search for Another Location

Airport or City:

Trip Planner

Search our weather history database for the weather conditions in past years. The results will help you decide how hot, cold, wet, or windy it might be!

Date:

Astronomy

Oct. 13, 2013 Rise Set
Actual Time 7:37 AM CDT 7:01 PM CDT
Civil Twilight 7:12 AM CDT 7:26 PM CDT
Nautical Twilight 6:43 AM CDT 7:55 PM CDT
Astronomical Twilight 6:14 AM CDT 8:24 PM CDT
Moon 3:41 PM CDT (10/13) 2:02 AM CDT (10/13)
Length of Visible Light 12h 13m
Length of Day
11h 23m
Waxing Gibbous, 69% of the Moon is Illuminated
Oct 13
Waxing Gibbous
Oct 18
Full
Oct 26
Last Quarter
Nov 3
New
Nov 9
First Quarter

Hourly Weather History & Observations

Time (CDT) Temp. Dew Point Humidity Pressure Visibility Wind Dir Wind Speed Gust Speed Precip Events Conditions
12:28 AM 62.6 °F 51.8 °F 68% 30.12 in 10.0 mi North 8.1 mph - N/A   Overcast
12:58 AM 62.1 °F 51.6 °F 69% 30.11 in 10.0 mi NNE 9.2 mph - N/A   Mostly Cloudy
1:58 AM 62.8 °F 51.8 °F 67% 30.13 in 10.0 mi NNE 10.4 mph - N/A   Overcast
2:18 AM 62.6 °F 51.8 °F 68% 30.15 in 10.0 mi NNE 8.1 mph - N/A   Overcast
2:58 AM 63.1 °F 52.2 °F 67% 30.14 in 10.0 mi NNE 9.2 mph - N/A   Overcast
3:58 AM 63.5 °F 52.9 °F 68% 30.14 in 10.0 mi NNE 10.4 mph - N/A   Overcast
4:58 AM 64.4 °F 52.5 °F 65% 30.14 in 10.0 mi NNE 10.4 mph - N/A   Overcast
5:58 AM 64.4 °F 53.4 °F 67% 30.15 in 10.0 mi NNE 8.1 mph - N/A   Overcast
6:08 AM 64.4 °F 53.6 °F 68% 30.16 in 10.0 mi NNE 9.2 mph - N/A   Overcast
6:58 AM 64.4 °F 54.5 °F 70% 30.17 in 10.0 mi NE 6.9 mph - N/A   Overcast
7:38 AM 64.4 °F 55.4 °F 73% 30.19 in 2.0 mi ENE 6.9 mph - N/A   Haze
7:43 AM 64.4 °F 55.4 °F 73% 30.19 in 1.2 mi ENE 6.9 mph - N/A   Haze
7:58 AM 64.4 °F 55.4 °F 73% 30.18 in 1.8 mi NE 8.1 mph - N/A   Haze
8:03 AM 64.4 °F 55.4 °F 73% 30.19 in 2.0 mi NE 6.9 mph - N/A   Haze
8:08 AM 64.4 °F 55.4 °F 73% 30.19 in 1.8 mi ENE 8.1 mph - N/A   Haze
8:13 AM 64.4 °F 55.4 °F 73% 30.19 in 1.5 mi ENE 5.8 mph - N/A   Haze
8:18 AM 64.4 °F 55.4 °F 73% 30.19 in 1.2 mi NE 8.1 mph - N/A   Haze
8:23 AM 64.4 °F 55.4 °F 73% 30.19 in 1.2 mi NE 8.1 mph - N/A   Haze
8:28 AM 64.4 °F 55.4 °F 73% 30.19 in 1.2 mi ENE 9.2 mph - N/A   Haze
8:38 AM 64.4 °F 57.2 °F 77% 30.20 in 1.0 mi ENE 8.1 mph - N/A   Haze
8:53 AM 66.2 °F 57.2 °F 73% 30.20 in 1.2 mi NE 9.2 mph - N/A   Haze
8:58 AM 65.7 °F 56.7 °F 73% 30.19 in 1.2 mi NE 10.4 mph - N/A   Haze
9:03 AM 66.2 °F 57.2 °F 73% 30.20 in 1.5 mi NE 8.1 mph - N/A   Haze
9:08 AM 66.2 °F 57.2 °F 73% 30.21 in 1.2 mi ENE 10.4 mph - N/A   Haze
9:18 AM 66.2 °F 57.2 °F 73% 30.21 in 1.0 mi ENE 10.4 mph - N/A   Haze
9:28 AM 66.2 °F 57.2 °F 73% 30.22 in 1.0 mi East 8.1 mph - N/A   Haze
9:58 AM 68.4 °F 58.3 °F 70% 30.21 in 1.0 mi ENE 8.1 mph - N/A   Haze
10:03 AM 68.0 °F 59.0 °F 73% 30.22 in 1.0 mi ENE 10.4 mph - N/A   Haze
10:08 AM 68.0 °F 59.0 °F 73% 30.22 in 1.2 mi ENE 10.4 mph - N/A   Haze
10:28 AM 68.0 °F 59.0 °F 73% 30.23 in 1.5 mi ENE 9.2 mph - N/A   Haze
10:33 AM 68.0 °F 59.0 °F 73% 30.23 in 1.5 mi ENE 5.8 mph - N/A   Haze
10:48 AM 68.0 °F 59.0 °F 73% 30.23 in 1.2 mi East 8.1 mph - N/A   Haze
10:58 AM 69.3 °F 60.4 °F 73% 30.22 in 1.2 mi East 10.4 mph - N/A   Haze
11:18 AM 69.8 °F 60.8 °F 73% 30.24 in 1.5 mi East 9.2 mph - N/A   Haze
11:28 AM 69.8 °F 60.8 °F 73% 30.24 in 1.2 mi East 8.1 mph - N/A   Haze
11:43 AM 69.8 °F 62.6 °F 78% 30.24 in 1.2 mi ENE 6.9 mph - N/A   Haze
11:48 AM 69.8 °F 62.6 °F 78% 30.24 in 1.5 mi ENE 5.8 mph - N/A   Haze
11:58 AM 69.8 °F 62.6 °F 78% 30.23 in 1.2 mi ENE 6.9 mph - N/A   Haze
12:03 PM 69.8 °F 62.6 °F 78% 30.24 in 1.5 mi NE 4.6 mph - N/A   Haze
12:08 PM 69.8 °F 62.6 °F 78% 30.24 in 2.5 mi ENE 5.8 mph - N/A   Haze
12:13 PM 69.8 °F 62.6 °F 78% 30.23 in 3.0 mi NE 6.9 mph - N/A   Haze
12:38 PM 71.6 °F 60.8 °F 69% 30.22 in 10.0 mi NNE 5.8 mph - N/A   Overcast
12:58 PM 70.3 °F 60.8 °F 72% 30.21 in 10.0 mi North 5.8 mph - N/A   Overcast
1:58 PM 70.7 °F 61.2 °F 72% 30.17 in 10.0 mi North 8.1 mph - N/A   Overcast
2:35 PM 69.8 °F 62.6 °F 78% 30.16 in 10.0 mi NNE 5.8 mph - N/A   Light Drizzle
2:52 PM 69.8 °F 62.6 °F 78% 30.16 in 10.0 mi NNE 4.6 mph - N/A   Overcast
2:58 PM 70.3 °F 62.6 °F 76% 30.15 in 10.0 mi NNE 4.6 mph - 0.00 in   Overcast
2:59 PM 69.8 °F 62.6 °F 78% 30.16 in 10.0 mi NNE 5.8 mph - N/A   Light Drizzle
3:09 PM 69.8 °F 62.6 °F 78% 30.16 in 10.0 mi North 6.9 mph - N/A   Light Drizzle
3:10 PM 69.8 °F 62.6 °F 78% 30.16 in 10.0 mi North 6.9 mph - N/A   Overcast
3:13 PM 69.8 °F 62.6 °F 78% 30.15 in 10.0 mi North 6.9 mph - N/A   Light Drizzle
3:25 PM 69.8 °F 62.6 °F 78% 30.15 in 10.0 mi NNE 8.1 mph - N/A   Overcast
3:55 PM 71.6 °F 64.4 °F 78% 30.14 in 10.0 mi NE 5.8 mph - N/A   Scattered Clouds
3:58 PM 72.1 °F 63.7 °F 75% 30.13 in 10.0 mi NE 5.8 mph - 0.00 in   Scattered Clouds
4:58 PM 71.2 °F 65.7 °F 82% 30.13 in 10.0 mi South 5.8 mph - N/A   Overcast
5:17 PM 71.6 °F 66.2 °F 83% 30.15 in 9.0 mi South 6.9 mph - N/A Rain Light Rain
5:22 PM 71.6 °F 66.2 °F 83% 30.15 in 8.0 mi South 6.9 mph - N/A   Light Drizzle
5:27 PM 69.8 °F 66.2 °F 88% 30.15 in 9.0 mi SSE 5.8 mph - N/A   Overcast
5:32 PM 69.8 °F 66.2 °F 88% 30.15 in 10.0 mi South 4.6 mph - N/A   Overcast
5:47 PM 69.8 °F 68.0 °F 94% 30.15 in 10.0 mi South 4.6 mph - N/A   Overcast
5:58 PM 69.6 °F 67.3 °F 92% 30.14 in 10.0 mi South 3.5 mph - 0.00 in   Overcast
6:28 PM 69.8 °F 68.0 °F 94% 30.15 in 10.0 mi SE 4.6 mph - N/A Rain Light Rain
6:40 PM 69.8 °F 68.0 °F 94% 30.15 in 9.0 mi SE 4.6 mph - N/A   Overcast
6:58 PM 69.4 °F 67.6 °F 94% 30.14 in 10.0 mi East 3.5 mph - 0.00 in   Overcast
7:18 PM 69.8 °F 68.0 °F 94% 30.16 in 10.0 mi ESE 4.6 mph - N/A   Overcast
7:43 PM 69.8 °F 68.0 °F 94% 30.17 in 8.0 mi SE 5.8 mph - N/A   Overcast
7:58 PM 69.4 °F 67.6 °F 94% 30.17 in 7.0 mi SE 5.8 mph - N/A   Overcast
8:58 PM 69.1 °F 66.7 °F 92% 30.18 in 6.0 mi ESE 5.8 mph - N/A   Mostly Cloudy
9:58 PM 68.2 °F 66.6 °F 95% 30.16 in 4.0 mi ESE 8.1 mph - N/A   Mostly Cloudy
10:58 PM 68.4 °F 66.6 °F 94% 30.15 in 4.0 mi SE 10.4 mph - N/A   Mostly Cloudy
11:08 PM 68.0 °F 66.2 °F 94% 30.15 in 2.5 mi ESE 8.1 mph - N/A   Mostly Cloudy
11:58 PM 68.4 °F 66.2 °F 93% 30.11 in 2.5 mi SE 12.7 mph - N/A   Partly Cloudy